COSMOS 1275 DEB, 39945

Orbit data source: Space-Track

COSMOS 1275 DEB, 39945 is space debris in LEO originally from a launch on Thu, 04 Jun 1981 UTC launched from the Plesetsk Missile And Space Complex (PKMTR). Debris objects in space refer to the collection of defunct objects orbiting the Earth. Examples of debris include non-operational satellites, rocket bodies, and fragments generated from explosions, collisions, or faulty payload assembly.

Loading next visibility...
Identifier
39945, 1981-053NF
Orbit
LEO
Country
Flag of CISCIS
Related business
Manufacturer
Unknown
Mission
Spacecraft
Bus & Motor
Unknown
Mass
Unknown
Launch date (UTC)
1981-06-04 (45 years ago)
Launch vehicle
Unknown
Launch site
Plesetsk Missile And Space Complex (PKMTR)
Object type
Payload
Rocket body
Debris
Shape & HBR
Unknown shape, 0.1 m
Radar Cross Section
Medium (>0.1 m² and <1 m²)

Expand to show TLE details & history
Last TLE update: 2 days ago

TLE from 2 days ago
0 COSMOS 1275 DEB
1 39945U 81053NF  26149.19640743  .00000267  00000-0  23872-3 0  9993
2 39945  82.9536 222.9528 0040350  52.3783 336.8495 13.80505096603144
Epoch: 2026-05-29T04:42Z
TLE epoch observation values (Epoch: 2026-05-29T04:42:49.601Z)
Latitude
28.85057°
Longitude
-90.59996°
Altitude
938.449 km
Speed
7.399 km/s
True Right ascension
15h 07m 20s
True Declination
28° 42' 33"
Sunlit
Object was in full shadow at epoch
Visualization orbit readout
Latitude
Unknown
Longitude
Unknown
Altitude
Unknown
Speed
Unknown
Apparent Right ascension
Unknown
Apparent Declination
Unknown
Sunlit
N/A
Visualization observer readout
Local Sidereal Time
07:42:06
Azimuth
Unknown
Elevation
Unknown
Doppler factor
Unknown
Orbital elements
Apogee altitude
988.843 km
Perigee altitude
929.63 km
Semi-major axis
7,337.373 km
Eccentricity
0.00404
Inclination
82.9536°
RAAN
222.9528°
Arg. of periapsis
52.3783°
True anomaly
336.66687°
Mean anomaly
336.8495°
Eccentric anomaly
336.75827°
Mean motion
3.45328 °/min
Orbital period
104.25 mins
BSTAR
0.00023872
Loading maneuver chart data...
Computing Atmospheric mass density...

Documentation

Showing up to 5 results
|